Location: Maiden
(35.5760°N, 81.2120°W)
Time: 03:37:09
(UTC-04:00)

Vanguard 2 - Pass Details

Date: 06 August 2020
Orbit: 553 x 2937 km, 32.9° (Epoch: 20 September)

Event Time Altitude Azimuth Distance (km) Brightness Sun altitude
Rises 18:43:43 0° 189° (S) 6,692 12.4 18.8°
Reaches altitude 10° 18:51:04 10° 171° (S) 5,758 11.9 17.3°
Maximum altitude 18:59:59 16° 140° (SE) 5,113 11.4 15.5°
Drops below altitude 10° 19:08:10 10° 109° (ESE) 5,278 11.2 13.9°
Sets 19:14:12 0° 90° (E) 5,900 11.4 12.7°
